* Astronomy

Members Login
Post Info TOPIC: Comet P/1999 U3 (LINEAR)


L

Posts: 131433
Date:
Comet P/2010 P2 (LINEAR)
Permalink  
 


Orbital elements:
P/1999 U3 (LINEAR) = P/2010 P2
Epoch 2010 July 23.0 TT = JDT 2455400.5
T 2010 July 18.30095 TT MPC
q 1.9214097 (2000.0) P Q
n 0.08979253 Peri. 110.15661 +0.50739797 -0.81197926
a 4.9390403 Node 305.97314 +0.59542603 +0.57239149
e 0.6109751 Incl. 20.88506 +0.62290862 +0.11427010
P 10.98
From 206 observations 1999 Oct. 30-2010 Aug. 13

MPEC 2010 - -P57


__________________


L

Posts: 131433
Date:
RE: Comet P/1999 U3 (LINEAR)
Permalink  
 


Comet P/1999 U3 (LINEAR) is at perihelion (1.921 AU) on the 18th July, 2010.

__________________


L

Posts: 131433
Date:
Permalink  
 

Ephemeris
Date    TT    R. A. (2000) Decl.     Delta      r     Elong.  Phase   Mag
2010 07 18 04 58.01 +37 11.5 2.584 1.921 40.1 19.9 18.4
2010 07 23 05 13.39 +37 23.8 2.560 1.922 41.6 20.5 18.4
2010 07 28 05 28.67 +37 29.8 2.536 1.924 43.1 21.1 18.4
2010 08 02 05 43.80 +37 29.9 2.512 1.926 44.6 21.7 18.3


__________________
Page 1 of 1  sorted by
 
Quick Reply

Please log in to post quick replies.



Create your own FREE Forum
Report Abuse
Powered by ActiveBoard